#timestamp,LO_Frequency,Hit 
1501372815.1,286047030.4,N
1501372816.0,286047030.4,N
1501372835.8,286047031.6,N
1501372855.7,286047031.6,N
1501372875.5,286047031.4,N
1501372895.3,286047032.3,N
1501372915.2,286047031.7,N
1501372935.9,286047031.7,N
1501372955.7,286047031.9,N
1501372975.6,286047032.6,N
1501372995.4,286047032.0,N
1501373015.2,286047032.9,N
1501373035.0,286047031.9,N
1501373036.0,286047031.9,N
1501373055.8,286047032.5,N
1501373075.6,286047034.5,N
1501373095.4,286047034.1,N
1501373115.3,286047034.6,N
1501373135.1,286047036.3,N
1501373155.8,286047033.6,N
1501373175.7,286047032.3,N
1501373195.5,286047034.6,N
1501373215.3,286047034.8,N
1501373235.2,286047035.3,N
1501373255.9,286047034.2,N
1501373275.7,286047033.7,N
1501373295.6,286047032.3,N
1501373315.4,286047032.0,N
1501373335.2,286047030.1,N
1501373355.1,286047031.7,N
1501373356.0,286047031.7,N
1501373375.8,286047039.1,N
1501373395.6,286047039.9,N
1501373415.4,286047041.1,N
1501373435.3,286047042.8,N
1501373455.1,286047039.9,N
1501373475.8,286047040.1,N
1501373495.7,286047041.1,N
1501373515.5,286047041.1,N
1501373535.3,286047038.4,N
1501373555.2,286047039.8,N
1501373575.9,286047038.2,N
1501373595.7,286047037.4,N
1501373615.6,286047037.6,N
1501373635.4,286047033.6,N
1501373655.2,286047035.9,N
1501373675.0,286047033.3,N
1501373676.0,286047033.3,N
1501373695.8,286047034.4,N
1501373715.6,286047030.1,N
1501373735.4,286047030.8,N
1501373755.3,286047032.7,N
1501373775.1,286047029.1,N
1501373795.8,286047027.1,N
1501373815.7,286047027.3,N
1501373835.5,286047031.1,N
1501373855.3,286047031.1,N
1501373875.2,286047031.3,N
1501373895.9,286047031.1,N
1501373915.7,286047030.5,N
1501373935.6,286047031.3,N
1501373955.4,286047033.2,N
1501373975.2,286047029.8,N
1501373995.1,286047029.5,N
1501373996.0,286047029.5,N
1501374015.8,286047026.0,N
1501374035.6,286047029.5,N
1501374055.5,286047025.3,N
1501374075.3,286047026.3,N
1501374095.1,286047025.9,N
1501374115.9,286047029.3,N
1501374135.7,286047030.1,N
1501374155.5,286047032.0,N
1501374175.3,286047031.8,N
1501374195.2,286047032.3,N
1501374215.0,286047035.3,N
1501374215.9,286047035.3,N
1501374235.7,286047037.4,N
1501374255.6,286047036.2,N
1501374275.4,286047035.0,N
1501374295.2,286047033.4,N
1501374315.1,286047036.3,N
1501374316.0,286047036.3,N
1501374335.8,286047035.8,N
1501374355.6,286047033.8,N
1501374375.5,286047033.5,N
1501374395.3,286047034.9,N
1501374415.1,286047035.7,N
1501374435.9,286047037.7,N
1501374455.7,286047037.7,N
1501374475.5,286047038.7,N
1501374495.3,286047037.1,N
1501374515.2,286047039.1,N
1501374535.0,286047039.4,N
1501374535.9,286047039.4,N
1501374555.7,286047038.8,N
1501374575.6,286047038.5,N
1501374595.4,286047039.3,N
1501374615.2,286047038.7,N
1501374635.1,286047038.7,N
1501374636.0,286047038.7,N
1501374655.8,286047036.8,N
1501374675.6,286047036.8,N
1501374695.5,286047036.9,N
1501374715.3,286047038.4,N
1501374735.1,286047037.1,N
1501374755.9,286047041.1,N
1501374775.7,286047039.8,N
1501374795.5,286047041.2,N
1501374815.3,286047036.8,N
1501374835.2,286047037.9,N
1501374855.0,286047033.3,N
1501374855.9,286047033.3,N
1501374875.7,286047035.2,N
1501374895.6,286047036.7,N
1501374915.4,286047037.1,N
1501374935.2,286047037.8,N
1501374955.1,286047036.6,N
1501374956.0,286047036.6,N
1501374975.8,286047039.6,N
1501374995.6,286047038.4,N
1501375015.5,286047040.2,N
1501375035.3,286047039.8,N
1501375055.1,286047044.4,N
1501375075.9,286047041.8,N
1501375095.7,286047038.2,N
1501375115.5,286047040.4,N
1501375135.3,286047041.0,N
1501375155.2,286047040.8,N
1501375175.0,286047039.8,N
1501375175.9,286047039.8,N
1501375195.7,286047040.7,N
1501375215.6,286047041.2,N
1501375235.4,286047038.5,N
1501375255.2,286047039.8,N
1501375275.1,286047040.2,N
1501375276.0,286047040.2,N
1501375295.8,286047039.2,N
1501375315.6,286047037.8,N
1501375335.5,286047037.3,N
1501375355.3,286047039.1,N
1501375375.1,286047039.9,N
1501375395.9,286047038.2,N
1501375415.7,286047039.2,N
1501375435.5,286047036.5,N
1501375455.4,286047039.2,N
1501375475.2,286047037.3,N
1501375495.0,286047036.8,N
1501375495.9,286047036.8,N
1501375515.7,286047036.9,N
1501375535.6,286047038.0,N
1501375555.4,286047038.6,N
1501375575.2,286047038.5,N
1501375595.1,286047039.7,N
1501375596.0,286047039.7,N
1501375615.8,286047043.8,N
1501375635.6,286047039.7,N
1501375655.5,286047039.4,N
1501375675.3,286047042.5,N
1501375695.1,286047038.4,N
1501375715.9,286047039.0,N
1501375735.7,286047042.4,N
1501375755.5,286047039.9,N
1501375775.4,286047041.4,N
1501375795.2,286047042.0,N
1501375815.0,286047042.0,N
1501375815.9,286047042.0,N
1501375835.8,286047045.6,N
1501375855.6,286047045.6,N
1501375875.4,286047045.1,N
1501375895.3,286047048.6,N
1501375915.1,286047047.5,N
1501375916.0,286047047.5,N
1501375935.8,286047047.5,N
1501375955.7,286047045.0,N
1501375975.5,286047043.4,N
1501375995.3,286047045.9,N
1501376015.1,286047043.8,N
1501376035.9,286047043.8,N
1501376055.7,286047042.5,N
1501376075.5,286047039.8,N
1501376095.4,286047040.3,N
1501376115.2,286047038.8,N
1501376135.0,286047038.1,N
1501376135.9,286047038.1,N
1501376155.8,286047040.2,N
1501376175.6,286047041.2,N
1501376195.4,286047040.1,N
1501376215.3,286047042.8,N
1501376235.1,286047039.7,N
1501376236.0,286047039.7,N
1501376255.8,286047040.2,N
1501376275.7,286047039.6,N
1501376295.5,286047038.1,N
1501376315.3,286047036.7,N
1501376335.2,286047038.7,N
1501376355.9,286047039.9,N
1501376375.7,286047038.6,N
1501376395.5,286047042.3,N
